Tracking 22879 objects as of 21-Apr-2021
HD Live streaming from Space Station
objects crossing your sky now

COSMOS 1057

Track COSMOS 1057 now!
10-day predictions
COSMOS 1057 is classified as:


NORAD ID: 11134
Int'l Code: 1978-109G
Perigee: 1,487.6 km
Apogee: 1,522.1 km
Inclination: 74.0 °
Period: 115.9 minutes
Semi major axis: 7875 km
RCS: 0.7046 m2 (medium)
Launch date: December 5, 1978
Source: Commonwealth of Independent States (former USSR) (CIS)
Launch site: PLESETSK MISSILE AND SPACE COMPLEX (PKMTR)
aabbcc
Your satellite tracking list
Your tracking list is empty




NASA's NSSDC Master Catalog

Two Line Element Set (TLE):
1 11134U 78109G   21110.74694012 -.00000010  00000-0  40793-4 0  9992
2 11134  74.0165 237.6808 0021895  14.7204  91.3946 12.42095873921366
Source of the keplerian elements: AFSPC